Year,Month,Day,Hour,Minute,Value (Times are PST for temperature in C)
2014,04,28,00,00,6.30
2014,04,28,00,01,6.30
2014,04,28,00,02,6.40
2014,04,28,00,03,6.40
2014,04,28,00,04,6.50
2014,04,28,00,05,6.50
2014,04,28,00,06,6.50
2014,04,28,00,07,6.50
2014,04,28,00,08,6.40
2014,04,28,00,09,6.40
2014,04,28,00,10,6.40
2014,04,28,00,11,6.30
2014,04,28,00,12,6.30
2014,04,28,00,13,6.30
2014,04,28,00,14,6.30
2014,04,28,00,15,6.20
2014,04,28,00,16,6.20
2014,04,28,00,17,6.10
2014,04,28,00,18,6.00
2014,04,28,00,19,5.90
2014,04,28,00,20,5.80
2014,04,28,00,21,5.80
2014,04,28,00,22,5.70
2014,04,28,00,23,5.70
2014,04,28,00,24,5.70
2014,04,28,00,25,5.60
2014,04,28,00,26,5.60
2014,04,28,00,27,5.60
2014,04,28,00,28,5.50
2014,04,28,00,29,5.50
2014,04,28,00,30,5.50
2014,04,28,00,31,5.50
2014,04,28,00,32,5.40
2014,04,28,00,33,5.40
2014,04,28,00,34,5.40
2014,04,28,00,35,5.40
2014,04,28,00,36,5.40
2014,04,28,00,37,5.40
2014,04,28,00,38,5.40
2014,04,28,00,39,5.40
2014,04,28,00,40,5.40
2014,04,28,00,41,5.40
2014,04,28,00,42,5.40
2014,04,28,00,43,5.40
2014,04,28,00,44,5.30
2014,04,28,00,45,5.30
2014,04,28,00,46,5.30
2014,04,28,00,47,5.30
2014,04,28,00,48,5.30
2014,04,28,00,49,5.30
2014,04,28,00,50,5.20
2014,04,28,00,51,5.20
2014,04,28,00,52,5.10
2014,04,28,00,53,5.10
2014,04,28,00,54,5.10
2014,04,28,00,55,5.10
2014,04,28,00,56,5.10
2014,04,28,00,57,5.00
2014,04,28,00,58,5.00
2014,04,28,00,59,5.00
2014,04,28,01,00,5.00
2014,04,28,01,01,5.00
2014,04,28,01,02,5.00
2014,04,28,01,03,5.00
2014,04,28,01,04,5.00
2014,04,28,01,05,5.00
2014,04,28,01,06,5.00
2014,04,28,01,07,5.00
2014,04,28,01,08,5.00
2014,04,28,01,09,5.00
2014,04,28,01,10,5.10
2014,04,28,01,11,5.10
2014,04,28,01,12,5.10
2014,04,28,01,13,5.10
2014,04,28,01,14,5.10
2014,04,28,01,15,5.10
2014,04,28,01,16,5.10
2014,04,28,01,17,5.10
2014,04,28,01,18,5.10
2014,04,28,01,19,5.10
2014,04,28,01,20,5.10
2014,04,28,01,21,5.10
2014,04,28,01,22,5.00
2014,04,28,01,23,5.00
2014,04,28,01,24,4.90
2014,04,28,01,25,4.90
2014,04,28,01,26,4.80
2014,04,28,01,27,4.80
2014,04,28,01,28,4.70
2014,04,28,01,29,4.70
2014,04,28,01,30,4.70
2014,04,28,01,31,4.60
2014,04,28,01,32,4.60
2014,04,28,01,33,4.60
2014,04,28,01,34,4.60
2014,04,28,01,35,4.50
2014,04,28,01,36,4.50
2014,04,28,01,37,4.50
2014,04,28,01,38,4.50
2014,04,28,01,39,4.50
2014,04,28,01,40,4.50
2014,04,28,01,41,4.50
2014,04,28,01,42,4.50
2014,04,28,01,43,4.50
2014,04,28,01,44,4.50
2014,04,28,01,45,4.50
2014,04,28,01,46,4.40
2014,04,28,01,47,4.50
2014,04,28,01,48,4.50
2014,04,28,01,49,4.50
2014,04,28,01,50,4.50
2014,04,28,01,51,4.50
2014,04,28,01,52,4.50
2014,04,28,01,53,4.50
2014,04,28,01,54,4.50
2014,04,28,01,55,4.50
2014,04,28,01,56,4.50
2014,04,28,01,57,4.50
2014,04,28,01,58,4.50
2014,04,28,01,59,4.50
2014,04,28,02,00,4.50
2014,04,28,02,01,4.40
2014,04,28,02,02,4.40
2014,04,28,02,03,4.40
2014,04,28,02,04,4.40
2014,04,28,02,05,4.40
2014,04,28,02,06,4.40
2014,04,28,02,07,4.30
2014,04,28,02,08,4.30
2014,04,28,02,09,4.30
2014,04,28,02,10,4.30
2014,04,28,02,11,4.30
2014,04,28,02,12,4.20
2014,04,28,02,13,4.20
2014,04,28,02,14,4.20
2014,04,28,02,15,4.10
2014,04,28,02,16,4.10
2014,04,28,02,17,4.10
2014,04,28,02,18,4.00
2014,04,28,02,19,4.00
2014,04,28,02,20,4.00
2014,04,28,02,21,3.90
2014,04,28,02,22,3.90
2014,04,28,02,23,3.90
2014,04,28,02,24,3.90
2014,04,28,02,25,3.90
2014,04,28,02,26,3.90
2014,04,28,02,27,3.90
2014,04,28,02,28,3.90
2014,04,28,02,29,3.90
2014,04,28,02,30,3.90
2014,04,28,02,31,3.80
2014,04,28,02,32,3.80
2014,04,28,02,33,3.80
2014,04,28,02,34,3.80
2014,04,28,02,35,3.80
2014,04,28,02,36,3.90
2014,04,28,02,37,3.80
2014,04,28,02,38,3.80
2014,04,28,02,39,3.80
2014,04,28,02,40,3.80
2014,04,28,02,41,3.80
2014,04,28,02,42,3.80
2014,04,28,02,43,3.80
2014,04,28,02,44,3.80
2014,04,28,02,45,3.80
2014,04,28,02,46,3.80
2014,04,28,02,47,3.80
2014,04,28,02,48,3.80
2014,04,28,02,49,3.70
2014,04,28,02,50,3.70
2014,04,28,02,51,3.70
2014,04,28,02,52,3.70
2014,04,28,02,53,3.70
2014,04,28,02,54,3.70
2014,04,28,02,55,3.60
2014,04,28,02,56,3.60
2014,04,28,02,57,3.60
2014,04,28,02,58,3.60
2014,04,28,02,59,3.60
2014,04,28,03,00,3.60
2014,04,28,03,01,3.60
2014,04,28,03,02,3.60
2014,04,28,03,03,3.60
2014,04,28,03,04,3.60
2014,04,28,03,05,3.60
2014,04,28,03,06,3.60
2014,04,28,03,07,3.60
2014,04,28,03,08,3.60
2014,04,28,03,09,3.60
2014,04,28,03,10,3.60
2014,04,28,03,11,3.60
2014,04,28,03,12,3.60
2014,04,28,03,13,3.60
2014,04,28,03,14,3.60
2014,04,28,03,15,3.60
2014,04,28,03,16,3.60
2014,04,28,03,17,3.60
2014,04,28,03,18,3.60
2014,04,28,03,19,3.70
2014,04,28,03,20,3.80
2014,04,28,03,21,3.80
2014,04,28,03,22,3.80
2014,04,28,03,23,3.80
2014,04,28,03,24,3.70
2014,04,28,03,25,3.70
2014,04,28,03,26,3.70
2014,04,28,03,27,3.70
2014,04,28,03,28,3.60
2014,04,28,03,29,3.60
2014,04,28,03,30,3.60
2014,04,28,03,31,3.60
2014,04,28,03,32,3.60
2014,04,28,03,33,3.50
2014,04,28,03,34,3.50
2014,04,28,03,35,3.50
2014,04,28,03,36,3.50
2014,04,28,03,37,3.40
2014,04,28,03,38,3.40
2014,04,28,03,39,3.40
2014,04,28,03,40,3.40
2014,04,28,03,41,3.40
2014,04,28,03,42,3.30
2014,04,28,03,43,3.30
2014,04,28,03,44,3.30
2014,04,28,03,45,3.30
2014,04,28,03,46,3.30
2014,04,28,03,47,3.30
2014,04,28,03,48,3.30
2014,04,28,03,49,3.30
2014,04,28,03,50,3.30
2014,04,28,03,51,3.30
2014,04,28,03,52,3.30
2014,04,28,03,53,3.30
2014,04,28,03,54,3.30
2014,04,28,03,55,3.30
2014,04,28,03,56,3.20
2014,04,28,03,57,3.20
2014,04,28,03,58,3.20
2014,04,28,03,59,3.20
2014,04,28,04,00,3.20
2014,04,28,04,01,3.10
2014,04,28,04,02,3.10
2014,04,28,04,03,3.10
2014,04,28,04,04,3.10
2014,04,28,04,05,3.10
2014,04,28,04,06,3.10
2014,04,28,04,07,3.10
2014,04,28,04,08,3.10
2014,04,28,04,09,3.10
2014,04,28,04,10,3.20
2014,04,28,04,11,3.20
2014,04,28,04,12,3.20
2014,04,28,04,13,3.20
2014,04,28,04,14,3.20
2014,04,28,04,15,3.20
2014,04,28,04,16,3.20
2014,04,28,04,17,3.20
2014,04,28,04,18,3.10
2014,04,28,04,19,3.10
2014,04,28,04,20,3.10
2014,04,28,04,21,3.10
2014,04,28,04,22,3.10
2014,04,28,04,23,3.10
2014,04,28,04,24,3.10
2014,04,28,04,25,3.10
2014,04,28,04,26,3.10
2014,04,28,04,27,3.10
2014,04,28,04,28,3.10
2014,04,28,04,29,3.10
2014,04,28,04,30,3.10
2014,04,28,04,31,3.10
2014,04,28,04,32,3.10
2014,04,28,04,33,3.10
2014,04,28,04,34,3.10
2014,04,28,04,35,3.10
2014,04,28,04,36,3.10
2014,04,28,04,37,3.10
2014,04,28,04,38,3.10
2014,04,28,04,39,3.10
2014,04,28,04,40,3.10
2014,04,28,04,41,3.10
2014,04,28,04,42,3.10
2014,04,28,04,43,3.10
2014,04,28,04,44,3.10
2014,04,28,04,45,3.00
2014,04,28,04,46,3.00
2014,04,28,04,47,2.90
2014,04,28,04,48,2.90
2014,04,28,04,49,2.90
2014,04,28,04,50,2.80
2014,04,28,04,51,2.80
2014,04,28,04,52,2.80
2014,04,28,04,53,2.70
2014,04,28,04,54,2.70
2014,04,28,04,55,2.70
2014,04,28,04,56,2.70
2014,04,28,04,57,2.70
2014,04,28,04,58,2.60
2014,04,28,04,59,2.60
2014,04,28,05,00,2.60
2014,04,28,05,01,2.60
2014,04,28,05,02,2.60
2014,04,28,05,03,2.60
2014,04,28,05,04,2.60
2014,04,28,05,05,2.70
2014,04,28,05,06,2.70
2014,04,28,05,07,2.70
2014,04,28,05,08,2.70
2014,04,28,05,09,2.70
2014,04,28,05,10,2.70
2014,04,28,05,11,2.70
2014,04,28,05,12,2.70
2014,04,28,05,13,2.70
2014,04,28,05,14,2.70
2014,04,28,05,15,2.70
2014,04,28,05,16,2.70
2014,04,28,05,17,2.60
2014,04,28,05,18,2.60
2014,04,28,05,19,2.60
2014,04,28,05,20,2.60
2014,04,28,05,21,2.60
2014,04,28,05,22,2.60
2014,04,28,05,23,2.60
2014,04,28,05,24,2.60
2014,04,28,05,25,2.70
2014,04,28,05,26,2.70
2014,04,28,05,27,2.60
2014,04,28,05,28,2.60
2014,04,28,05,29,2.70
2014,04,28,05,30,2.70
2014,04,28,05,31,2.70
2014,04,28,05,32,2.70
2014,04,28,05,33,2.70
2014,04,28,05,34,2.70
2014,04,28,05,35,2.70
2014,04,28,05,36,2.70
2014,04,28,05,37,2.70
2014,04,28,05,38,2.70
2014,04,28,05,39,2.70
2014,04,28,05,40,2.70
2014,04,28,05,41,2.70
2014,04,28,05,42,2.70
2014,04,28,05,43,2.70
2014,04,28,05,44,2.60
2014,04,28,05,45,2.60
2014,04,28,05,46,2.60
2014,04,28,05,47,2.60
2014,04,28,05,48,2.50
2014,04,28,05,49,2.50
2014,04,28,05,50,2.50
2014,04,28,05,51,2.40
2014,04,28,05,52,2.40
2014,04,28,05,53,2.40
2014,04,28,05,54,2.40
2014,04,28,05,55,2.40
2014,04,28,05,56,2.40
2014,04,28,05,57,2.40
2014,04,28,05,58,2.40
2014,04,28,05,59,2.40
2014,04,28,06,00,2.40
2014,04,28,06,01,2.40
2014,04,28,06,02,2.40
2014,04,28,06,03,2.30
2014,04,28,06,04,2.30
2014,04,28,06,05,2.30
2014,04,28,06,06,2.30
2014,04,28,06,07,2.30
2014,04,28,06,08,2.40
2014,04,28,06,09,2.40
2014,04,28,06,10,2.40
2014,04,28,06,11,2.40
2014,04,28,06,12,2.50
2014,04,28,06,13,2.50
2014,04,28,06,14,2.50
2014,04,28,06,15,2.50
2014,04,28,06,16,2.50
2014,04,28,06,17,2.50
2014,04,28,06,18,2.50
2014,04,28,06,19,2.50
2014,04,28,06,20,2.60
2014,04,28,06,21,2.60
2014,04,28,06,22,2.60
2014,04,28,06,23,2.70
2014,04,28,06,24,2.70
2014,04,28,06,25,2.70
2014,04,28,06,26,2.70
2014,04,28,06,27,2.70
2014,04,28,06,28,2.70
2014,04,28,06,29,2.70
2014,04,28,06,30,2.70
2014,04,28,06,31,2.70
2014,04,28,06,32,2.70
2014,04,28,06,33,2.70
2014,04,28,06,34,2.80
2014,04,28,06,35,2.80
2014,04,28,06,36,2.80
2014,04,28,06,37,2.80
2014,04,28,06,38,2.80
2014,04,28,06,39,2.90
2014,04,28,06,40,2.90
2014,04,28,06,41,2.90
2014,04,28,06,42,3.00
2014,04,28,06,43,3.10
2014,04,28,06,44,3.10
2014,04,28,06,45,3.20
2014,04,28,06,46,3.20
2014,04,28,06,47,3.30
2014,04,28,06,48,3.30
2014,04,28,06,49,3.40
2014,04,28,06,50,3.40
2014,04,28,06,51,3.40
2014,04,28,06,52,3.50
2014,04,28,06,53,3.50
2014,04,28,06,54,3.50
2014,04,28,06,55,3.60
2014,04,28,06,56,3.60
2014,04,28,06,57,3.70
2014,04,28,06,58,3.70
2014,04,28,06,59,3.80
2014,04,28,07,00,3.80
2014,04,28,07,01,3.90
2014,04,28,07,02,3.90
2014,04,28,07,03,3.90
2014,04,28,07,04,4.00
2014,04,28,07,05,4.10
2014,04,28,07,06,4.10
2014,04,28,07,07,4.20
2014,04,28,07,08,4.20
2014,04,28,07,09,4.30
2014,04,28,07,10,4.40
2014,04,28,07,11,4.50
2014,04,28,07,12,4.70
2014,04,28,07,13,4.80
2014,04,28,07,14,4.90
2014,04,28,07,15,5.00
2014,04,28,07,16,5.00
2014,04,28,07,17,5.10
2014,04,28,07,18,5.20
2014,04,28,07,19,5.30
2014,04,28,07,20,5.40
2014,04,28,07,21,5.50
2014,04,28,07,22,5.60
2014,04,28,07,23,5.60
2014,04,28,07,24,5.60
2014,04,28,07,25,5.70
2014,04,28,07,26,5.80
2014,04,28,07,27,5.80
2014,04,28,07,28,5.80
2014,04,28,07,29,5.90
2014,04,28,07,30,5.90
2014,04,28,07,31,5.90
2014,04,28,07,32,6.00
2014,04,28,07,33,6.00
2014,04,28,07,34,6.10
2014,04,28,07,35,6.20
2014,04,28,07,36,6.20
2014,04,28,07,37,6.20
2014,04,28,07,38,6.30
2014,04,28,07,39,6.30
2014,04,28,07,40,6.30
2014,04,28,07,41,6.40
2014,04,28,07,42,6.50
2014,04,28,07,43,6.60
2014,04,28,07,44,6.70
2014,04,28,07,45,6.70
2014,04,28,07,46,6.70
2014,04,28,07,47,6.80
2014,04,28,07,48,6.80
2014,04,28,07,49,6.80
2014,04,28,07,50,6.80
2014,04,28,07,51,6.80
2014,04,28,07,52,6.80
2014,04,28,07,53,6.90
2014,04,28,07,54,6.90
2014,04,28,07,55,6.90
2014,04,28,07,56,6.90
2014,04,28,07,57,6.90
2014,04,28,07,58,7.00
2014,04,28,07,59,7.10
2014,04,28,08,00,7.20
2014,04,28,08,01,7.30
2014,04,28,08,02,7.30
2014,04,28,08,03,7.40
2014,04,28,08,04,7.50
2014,04,28,08,05,7.50
2014,04,28,08,06,7.60
2014,04,28,08,07,7.70
2014,04,28,08,08,7.80
2014,04,28,08,09,7.90
2014,04,28,08,10,7.90
2014,04,28,08,11,7.90
2014,04,28,08,12,7.90
2014,04,28,08,13,7.90
2014,04,28,08,14,8.00
2014,04,28,08,15,8.10
2014,04,28,08,16,8.10
2014,04,28,08,17,8.20
2014,04,28,08,18,8.30
2014,04,28,08,19,8.30
2014,04,28,08,20,8.30
2014,04,28,08,21,8.30
2014,04,28,08,22,8.20
2014,04,28,08,23,8.20
2014,04,28,08,24,8.30
2014,04,28,08,25,8.30
2014,04,28,08,26,8.40
2014,04,28,08,27,8.40
2014,04,28,08,28,8.50
2014,04,28,08,29,8.50
2014,04,28,08,30,8.50
2014,04,28,08,31,8.60
2014,04,28,08,32,8.60
2014,04,28,08,33,8.50
2014,04,28,08,34,8.50
2014,04,28,08,35,8.40
2014,04,28,08,36,8.40
2014,04,28,08,37,8.40
2014,04,28,08,38,8.40
2014,04,28,08,39,8.40
2014,04,28,08,40,8.40
2014,04,28,08,41,8.40
2014,04,28,08,42,8.40
2014,04,28,08,43,8.50
2014,04,28,08,44,8.50
2014,04,28,08,45,8.60
2014,04,28,08,46,8.70
2014,04,28,08,47,8.70
2014,04,28,08,48,8.80
2014,04,28,08,49,8.80
2014,04,28,08,50,8.80
2014,04,28,08,51,8.70
2014,04,28,08,52,8.70
2014,04,28,08,53,8.70
2014,04,28,08,54,8.80
2014,04,28,08,55,8.80
2014,04,28,08,56,8.90
2014,04,28,08,57,9.00
2014,04,28,08,58,9.20
2014,04,28,08,59,9.20
2014,04,28,09,00,9.30
2014,04,28,09,01,9.40
2014,04,28,09,02,9.50
2014,04,28,09,03,9.60
2014,04,28,09,04,9.60
2014,04,28,09,05,9.70
2014,04,28,09,06,9.80
2014,04,28,09,07,9.80
2014,04,28,09,08,9.90
2014,04,28,09,09,10.00
2014,04,28,09,10,10.10
2014,04,28,09,11,10.10
2014,04,28,09,12,10.20
2014,04,28,09,13,10.20
2014,04,28,09,14,10.20
2014,04,28,09,15,10.30
2014,04,28,09,16,10.30
2014,04,28,09,17,10.30
2014,04,28,09,18,10.40
2014,04,28,09,19,10.40
2014,04,28,09,20,10.50
2014,04,28,09,21,10.50
2014,04,28,09,22,10.60
2014,04,28,09,23,10.60
2014,04,28,09,24,10.70
2014,04,28,09,25,10.70
2014,04,28,09,26,10.80
2014,04,28,09,27,10.80
2014,04,28,09,28,10.90
2014,04,28,09,29,10.90
2014,04,28,09,30,10.90
2014,04,28,09,31,10.90
2014,04,28,09,32,10.80
2014,04,28,09,33,10.80
2014,04,28,09,34,10.80
2014,04,28,09,35,10.80
2014,04,28,09,36,10.80
2014,04,28,09,37,10.80
2014,04,28,09,38,10.80
2014,04,28,09,39,10.90
2014,04,28,09,40,10.90
2014,04,28,09,41,10.90
2014,04,28,09,42,11.00
2014,04,28,09,43,11.00
2014,04,28,09,44,11.10
2014,04,28,09,45,11.20
2014,04,28,09,46,11.30
2014,04,28,09,47,11.20
2014,04,28,09,48,11.20
2014,04,28,09,49,11.10
2014,04,28,09,50,11.00
2014,04,28,09,51,10.90
2014,04,28,09,52,10.80
2014,04,28,09,53,10.70
2014,04,28,09,54,10.60
2014,04,28,09,55,10.60
2014,04,28,09,56,10.70
2014,04,28,09,57,10.70
2014,04,28,09,58,10.80
2014,04,28,09,59,10.80
2014,04,28,10,00,10.80
2014,04,28,10,01,10.90
2014,04,28,10,02,10.90
2014,04,28,10,03,10.90
2014,04,28,10,04,10.90
2014,04,28,10,05,11.00
2014,04,28,10,06,11.00
2014,04,28,10,07,11.10
2014,04,28,10,08,11.10
2014,04,28,10,09,11.10
2014,04,28,10,10,11.10
2014,04,28,10,11,11.10
2014,04,28,10,12,11.10
2014,04,28,10,13,11.10
2014,04,28,10,14,11.10
2014,04,28,10,15,11.20
2014,04,28,10,16,11.20
2014,04,28,10,17,11.20
2014,04,28,10,18,11.20
2014,04,28,10,19,11.10
2014,04,28,10,20,11.10
2014,04,28,10,21,11.10
2014,04,28,10,22,11.10
2014,04,28,10,23,11.20
2014,04,28,10,24,11.20
2014,04,28,10,25,11.10
2014,04,28,10,26,11.10
2014,04,28,10,27,11.20
2014,04,28,10,28,11.20
2014,04,28,10,29,11.30
2014,04,28,10,30,11.40
2014,04,28,10,31,11.40
2014,04,28,10,32,11.40
2014,04,28,10,33,11.40
2014,04,28,10,34,11.40
2014,04,28,10,35,11.40
2014,04,28,10,36,11.40
2014,04,28,10,37,11.40
2014,04,28,10,38,11.40
2014,04,28,10,39,11.40
2014,04,28,10,40,11.50
2014,04,28,10,41,11.60
2014,04,28,10,42,11.70
2014,04,28,10,43,11.70
2014,04,28,10,44,11.80
2014,04,28,10,45,11.80
2014,04,28,10,46,11.90
2014,04,28,10,47,11.90
2014,04,28,10,48,11.80
2014,04,28,10,49,11.80
2014,04,28,10,50,11.80
2014,04,28,10,51,11.90
2014,04,28,10,52,11.90
2014,04,28,10,53,12.00
2014,04,28,10,54,12.00
2014,04,28,10,55,12.00
2014,04,28,10,56,12.00
2014,04,28,10,57,12.00
2014,04,28,10,58,12.20
2014,04,28,10,59,12.30
2014,04,28,11,00,12.30
2014,04,28,11,01,12.40
2014,04,28,11,02,12.50
2014,04,28,11,03,12.40
2014,04,28,11,04,12.30
2014,04,28,11,05,12.30
2014,04,28,11,06,12.20
2014,04,28,11,07,12.20
2014,04,28,11,08,12.20
2014,04,28,11,09,12.20
2014,04,28,11,10,12.10
2014,04,28,11,11,12.20
2014,04,28,11,12,12.20
2014,04,28,11,13,12.20
2014,04,28,11,14,12.30
2014,04,28,11,15,12.30
2014,04,28,11,16,12.30
2014,04,28,11,17,12.30
2014,04,28,11,18,12.30
2014,04,28,11,19,12.30
2014,04,28,11,20,12.30
2014,04,28,11,21,12.50
2014,04,28,11,22,12.50
2014,04,28,11,23,12.50
2014,04,28,11,24,12.60
2014,04,28,11,25,12.70
2014,04,28,11,26,12.70
2014,04,28,11,27,12.80
2014,04,28,11,28,12.80
2014,04,28,11,29,12.80
2014,04,28,11,30,12.70
2014,04,28,11,31,12.70
2014,04,28,11,32,12.70
2014,04,28,11,33,12.70
2014,04,28,11,34,12.70
2014,04,28,11,35,12.70
2014,04,28,11,36,12.70
2014,04,28,11,37,12.60
2014,04,28,11,38,12.60
2014,04,28,11,39,12.60
2014,04,28,11,40,12.50
2014,04,28,11,41,12.50
2014,04,28,11,42,12.50
2014,04,28,11,43,12.50
2014,04,28,11,44,12.50
2014,04,28,11,45,12.60
2014,04,28,11,46,12.60
2014,04,28,11,47,12.60
2014,04,28,11,48,12.60
2014,04,28,11,49,12.60
2014,04,28,11,50,12.60
2014,04,28,11,51,12.60
2014,04,28,11,52,12.70
2014,04,28,11,53,12.80
2014,04,28,11,54,12.90
2014,04,28,11,55,12.90
2014,04,28,11,56,12.80
2014,04,28,11,57,12.80
2014,04,28,11,58,12.70
2014,04,28,11,59,12.70
2014,04,28,12,00,12.70
2014,04,28,12,01,12.70
2014,04,28,12,02,12.70
2014,04,28,12,03,12.70
2014,04,28,12,04,12.70
2014,04,28,12,05,12.70
2014,04,28,12,06,12.80
2014,04,28,12,07,12.70
2014,04,28,12,08,12.70
2014,04,28,12,09,12.70
2014,04,28,12,10,12.70
2014,04,28,12,11,12.70
2014,04,28,12,12,12.70
2014,04,28,12,13,12.70
2014,04,28,12,14,12.80
2014,04,28,12,15,12.80
2014,04,28,12,16,12.80
2014,04,28,12,17,12.70
2014,04,28,12,18,12.70
2014,04,28,12,19,12.70
2014,04,28,12,20,12.60
2014,04,28,12,21,12.60
2014,04,28,12,22,12.60
2014,04,28,12,23,12.60
2014,04,28,12,24,12.50
2014,04,28,12,25,12.40
2014,04,28,12,26,12.40
2014,04,28,12,27,12.50
2014,04,28,12,28,12.50
2014,04,28,12,29,12.60
2014,04,28,12,30,12.70
2014,04,28,12,31,12.80
2014,04,28,12,32,12.80
2014,04,28,12,33,12.90
2014,04,28,12,34,13.00
2014,04,28,12,35,12.90
2014,04,28,12,36,12.90
2014,04,28,12,37,12.90
2014,04,28,12,38,12.80
2014,04,28,12,39,12.70
2014,04,28,12,40,12.60
2014,04,28,12,41,12.60
2014,04,28,12,42,12.50
2014,04,28,12,43,12.40
2014,04,28,12,44,12.30
2014,04,28,12,45,12.30
2014,04,28,12,46,12.40
2014,04,28,12,47,12.60
2014,04,28,12,48,12.80
2014,04,28,12,49,12.90
2014,04,28,12,50,13.00
2014,04,28,12,51,12.90
2014,04,28,12,52,12.80
2014,04,28,12,53,12.80
2014,04,28,12,54,12.70
2014,04,28,12,55,12.70
2014,04,28,12,56,12.70
2014,04,28,12,57,12.70
2014,04,28,12,58,12.70
2014,04,28,12,59,12.70
2014,04,28,13,00,12.70
2014,04,28,13,01,12.70
2014,04,28,13,02,12.70
2014,04,28,13,03,12.70
2014,04,28,13,04,12.80
2014,04,28,13,05,12.90
2014,04,28,13,06,12.90
2014,04,28,13,07,12.90
2014,04,28,13,08,12.90
2014,04,28,13,09,12.90
2014,04,28,13,10,12.80
2014,04,28,13,11,12.80
2014,04,28,13,12,12.80
2014,04,28,13,13,12.80
2014,04,28,13,14,12.80
2014,04,28,13,15,12.70
2014,04,28,13,16,12.60
2014,04,28,13,17,12.50
2014,04,28,13,18,12.50
2014,04,28,13,19,12.50
2014,04,28,13,20,12.60
2014,04,28,13,21,12.60
2014,04,28,13,22,12.60
2014,04,28,13,23,12.60
2014,04,28,13,24,12.70
2014,04,28,13,25,12.70
2014,04,28,13,26,12.70
2014,04,28,13,27,12.70
2014,04,28,13,28,12.70
2014,04,28,13,29,12.70
2014,04,28,13,30,12.80
2014,04,28,13,31,12.90
2014,04,28,13,32,12.90
2014,04,28,13,33,12.90
2014,04,28,13,34,12.80
2014,04,28,13,35,12.80
2014,04,28,13,36,12.80
2014,04,28,13,37,12.70
2014,04,28,13,38,12.70
2014,04,28,13,39,12.70
2014,04,28,13,40,12.70
2014,04,28,13,41,12.80
2014,04,28,13,42,12.90
2014,04,28,13,43,12.90
2014,04,28,13,44,13.00
2014,04,28,13,45,13.00
2014,04,28,13,46,13.00
2014,04,28,13,47,12.90
2014,04,28,13,48,12.80
2014,04,28,13,49,12.80
2014,04,28,13,50,12.70
2014,04,28,13,51,12.60
2014,04,28,13,52,12.60
2014,04,28,13,53,12.70
2014,04,28,13,54,12.90
2014,04,28,13,55,13.10
2014,04,28,13,56,13.20
2014,04,28,13,57,13.30
2014,04,28,13,58,13.30
2014,04,28,13,59,13.30
2014,04,28,14,00,13.30
2014,04,28,14,01,13.30
2014,04,28,14,02,13.40
2014,04,28,14,03,13.30
2014,04,28,14,04,13.20
2014,04,28,14,05,13.10
2014,04,28,14,06,13.00
2014,04,28,14,07,13.00
2014,04,28,14,08,13.00
2014,04,28,14,09,13.10
2014,04,28,14,10,13.20
2014,04,28,14,11,13.30
2014,04,28,14,12,13.20
2014,04,28,14,13,13.20
2014,04,28,14,14,13.20
2014,04,28,14,15,13.20
2014,04,28,14,16,13.20
2014,04,28,14,17,13.20
2014,04,28,14,18,13.20
2014,04,28,14,19,13.10
2014,04,28,14,20,13.00
2014,04,28,14,21,13.00
2014,04,28,14,22,12.90
2014,04,28,14,23,12.90
2014,04,28,14,24,12.80
2014,04,28,14,25,12.80
2014,04,28,14,26,12.80
2014,04,28,14,27,12.70
2014,04,28,14,28,12.60
2014,04,28,14,29,12.60
2014,04,28,14,30,12.60
2014,04,28,14,31,12.70
2014,04,28,14,32,12.80
2014,04,28,14,33,12.80
2014,04,28,14,34,12.80
2014,04,28,14,35,12.80
2014,04,28,14,36,12.90
2014,04,28,14,37,12.90
2014,04,28,14,38,13.00
2014,04,28,14,39,13.00
2014,04,28,14,40,12.90
2014,04,28,14,41,12.90
2014,04,28,14,42,13.00
2014,04,28,14,43,13.00
2014,04,28,14,44,13.10
2014,04,28,14,45,13.20
2014,04,28,14,46,13.20
2014,04,28,14,47,13.20
2014,04,28,14,48,13.30
2014,04,28,14,49,13.20
2014,04,28,14,50,13.20
2014,04,28,14,51,13.10
2014,04,28,14,52,13.00
2014,04,28,14,53,13.00
2014,04,28,14,54,13.00
2014,04,28,14,55,13.10
2014,04,28,14,56,13.10
2014,04,28,14,57,13.10
2014,04,28,14,58,13.10
2014,04,28,14,59,13.10
2014,04,28,15,00,13.20
2014,04,28,15,01,13.20
2014,04,28,15,02,13.30
2014,04,28,15,03,13.30
2014,04,28,15,04,13.30
2014,04,28,15,05,13.40
2014,04,28,15,06,13.40
2014,04,28,15,07,13.40
2014,04,28,15,08,13.30
2014,04,28,15,09,13.30
2014,04,28,15,10,13.40
2014,04,28,15,11,13.40
2014,04,28,15,12,13.40
2014,04,28,15,13,13.40
2014,04,28,15,14,13.30
2014,04,28,15,15,13.30
2014,04,28,15,16,13.30
2014,04,28,15,17,13.30
2014,04,28,15,18,13.30
2014,04,28,15,19,13.40
2014,04,28,15,20,13.40
2014,04,28,15,21,13.40
2014,04,28,15,22,13.40
2014,04,28,15,23,13.40
2014,04,28,15,24,13.40
2014,04,28,15,25,13.40
2014,04,28,15,26,13.40
2014,04,28,15,27,13.40
2014,04,28,15,28,13.40
2014,04,28,15,29,13.50
2014,04,28,15,30,13.50
2014,04,28,15,31,13.40
2014,04,28,15,32,13.40
2014,04,28,15,33,13.30
2014,04,28,15,34,13.30
2014,04,28,15,35,13.20
2014,04,28,15,36,13.20
2014,04,28,15,37,13.30
2014,04,28,15,38,13.30
2014,04,28,15,39,13.30
2014,04,28,15,40,13.30
2014,04,28,15,41,13.30
2014,04,28,15,42,13.30
2014,04,28,15,43,13.30
2014,04,28,15,44,13.30
2014,04,28,15,45,13.30
2014,04,28,15,46,13.30
2014,04,28,15,47,13.40
2014,04,28,15,48,13.40
2014,04,28,15,49,13.40
2014,04,28,15,50,13.30
2014,04,28,15,51,13.30
2014,04,28,15,52,13.30
2014,04,28,15,53,13.30
2014,04,28,15,54,13.30
2014,04,28,15,55,13.30
2014,04,28,15,56,13.20
2014,04,28,15,57,13.20
2014,04,28,15,58,13.20
2014,04,28,15,59,13.20
2014,04,28,16,00,13.20
2014,04,28,16,01,13.20
2014,04,28,16,02,13.10
2014,04,28,16,03,13.10
2014,04,28,16,04,13.00
2014,04,28,16,05,12.90
2014,04,28,16,06,12.90
2014,04,28,16,07,12.90
2014,04,28,16,08,12.90
2014,04,28,16,09,12.90
2014,04,28,16,10,13.00
2014,04,28,16,11,13.00
2014,04,28,16,12,13.00
2014,04,28,16,13,13.00
2014,04,28,16,14,13.00
2014,04,28,16,15,13.10
2014,04,28,16,16,13.20
2014,04,28,16,17,13.30
2014,04,28,16,18,13.30
2014,04,28,16,19,13.30
2014,04,28,16,20,13.30
2014,04,28,16,21,13.30
2014,04,28,16,22,13.30
2014,04,28,16,23,13.30
2014,04,28,16,24,13.30
2014,04,28,16,25,13.30
2014,04,28,16,26,13.30
2014,04,28,16,27,13.30
2014,04,28,16,28,13.20
2014,04,28,16,29,13.20
2014,04,28,16,30,13.30
2014,04,28,16,31,13.30
2014,04,28,16,32,13.30
2014,04,28,16,33,13.30
2014,04,28,16,34,13.30
2014,04,28,16,35,13.30
2014,04,28,16,36,13.30
2014,04,28,16,37,13.30
2014,04,28,16,38,13.20
2014,04,28,16,39,13.20
2014,04,28,16,40,13.20
2014,04,28,16,41,13.10
2014,04,28,16,42,13.10
2014,04,28,16,43,13.00
2014,04,28,16,44,13.00
2014,04,28,16,45,13.00
2014,04,28,16,46,12.90
2014,04,28,16,47,12.90
2014,04,28,16,48,12.90
2014,04,28,16,49,12.80
2014,04,28,16,50,12.80
2014,04,28,16,51,12.80
2014,04,28,16,52,12.80
2014,04,28,16,53,12.80
2014,04,28,16,54,12.80
2014,04,28,16,55,12.80
2014,04,28,16,56,12.80
2014,04,28,16,57,12.80
2014,04,28,16,58,12.80
2014,04,28,16,59,12.90
2014,04,28,17,00,12.90
2014,04,28,17,01,12.90
2014,04,28,17,02,12.90
2014,04,28,17,03,12.90
2014,04,28,17,04,12.80
2014,04,28,17,05,12.80
2014,04,28,17,06,12.80
2014,04,28,17,07,12.80
2014,04,28,17,08,12.80
2014,04,28,17,09,12.90
2014,04,28,17,10,12.90
2014,04,28,17,11,13.00
2014,04,28,17,12,13.00
2014,04,28,17,13,13.10
2014,04,28,17,14,13.10
2014,04,28,17,15,13.10
2014,04,28,17,16,13.10
2014,04,28,17,17,13.10
2014,04,28,17,18,13.00
2014,04,28,17,19,12.90
2014,04,28,17,20,12.90
2014,04,28,17,21,12.80
2014,04,28,17,22,12.70
2014,04,28,17,23,12.70
2014,04,28,17,24,12.70
2014,04,28,17,25,12.70
2014,04,28,17,26,12.80
2014,04,28,17,27,12.80
2014,04,28,17,28,12.80
2014,04,28,17,29,12.90
2014,04,28,17,30,13.00
2014,04,28,17,31,13.00
2014,04,28,17,32,13.10
2014,04,28,17,33,13.10
2014,04,28,17,34,13.10
2014,04,28,17,35,13.20
2014,04,28,17,36,13.20
2014,04,28,17,37,13.20
2014,04,28,17,38,13.20
2014,04,28,17,39,13.20
2014,04,28,17,40,13.20
2014,04,28,17,41,13.20
2014,04,28,17,42,13.20
2014,04,28,17,43,13.20